User: anonymous   Login
Location: Mainz-Finthen
(49.9906°N, 8.1713°E)
Time: 15:51:01
(UTC+00:00)
Language:

DUCHIFAT 1 - Orbit

View from above orbital plane
View from above orbital plane
View from above satellite
View from above satellite

Ground track
Ground track

The orbit data is extracted from the following two-line orbital elements,

1 40021U 14033M   21332.09766242  .00000894  00000-0  94782-4 0  9990
2 40021  97.9894 274.1727 0012613 351.9193   8.1820 14.91657541404672
Epoch (UTC): 28 November 2021 02:20:38
Eccentricity: 0.0012613
inclination: 97.9894°
perigee height: 584 km
apogee height: 601 km
right ascension of ascending node: 274.1727°
argument of perigee: 351.9193°
revolutions per day: 14.91657541
mean anomaly at epoch: 8.1820°
orbit number at epoch: 40467

The dashed part of the orbit path shows where the satellite is in the earth's shadow,  

DLR